EW7304 Weather Reports


Display with metric or nautical units.
time (UTC)temp
F
wind
direction
speed
MPH
gust
MPH
rain 1hr
in
rain 24hr
in
rain mn
in
humidity
%
barometer
mb
20260502163034 69 85 1.0 6.0 0.00 2.31 0.00 64 1020.4
20260502161528 68 105 1.0 6.0 0.00 2.31 0.00 67 1020.5
20260502151517 66 112 1.0 5.0 0.00 2.35 0.00 73 1020.2
20260502123049 55 330 0.0 3.0 0.00 2.43 0.00 91 1018.5
20260502121549 54 300 0.0 4.0 0.00 2.43 0.00 92 1018.4
20260502114543 54 352 0.0 2.0 0.00 2.43 0.00 92 1018.1
20260502113041 54 330 0.0 4.0 0.00 2.43 0.00 92 1017.8
20260502111539 54 20 0.0 2.0 0.00 2.43 0.00 92 1017.8
20260502110037 54 1 0.0 1.0 0.00 2.43 0.00 91 1017.7
20260502104546 54 347 0.0 0.0 0.00 2.43 0.00 90 1017.3
20260502103034 54 327 0.0 1.0 0.00 2.43 0.00 88 1017.0
20260502101530 54 96 0.0 6.0 0.00 2.43 0.00 87 1016.8
20260502091524 55 328 0.0 4.0 0.00 2.43 0.00 89 1015.9
20260502071517 56 20 0.0 3.0 0.00 2.43 0.00 94 1015.8
20260502070009 56 27 0.0 4.0 0.00 2.43 0.00 94 1015.7
20260502064512 56 338 1.0 5.0 0.00 2.46 0.00 94 1015.4
20260502063108 56 342 0.0 4.0 0.00 2.46 0.00 94 1015.4
20260502061506 56 88 0.0 4.0 0.00 2.46 0.00 95 1015.4
20260502060005 56 136 0.0 8.0 0.00 2.46 0.00 94 1015.4
20260502054511 56 44 1.0 11.0 0.00 3.17 0.00 94 1015.4
20260502053002 56 77 0.0 6.0 0.00 3.17 0.00 94 1015.7
20260502051659 56 47 0.0 6.0 0.00 3.17 0.00 95 1015.6
20260502050100 56 9 1.0 6.0 0.00 3.17 0.00 96 1015.6
20260502044607 56 54 0.0 3.0 0.01 3.17 3.17 96 1015.6
20260502043103 56 68 0.0 5.0 0.01 3.17 3.17 96 1015.6
20260502041539 56 327 1.0 4.0 0.01 3.17 3.17 96 1015.6
20260502040036 56 68 0.0 4.0 0.01 3.17 3.17 96 1015.3
20260502034542 57 72 0.0 5.0 0.01 3.16 3.16 96 1014.7
20260502033045 57 117 0.0 4.0 0.02 3.16 3.16 96 1014.5
20260502031528 57 27 0.0 5.0 0.02 3.16 3.16 96 1014.1
20260502030027 57 92 1.0 6.0 0.03 3.16 3.16 96 1013.4
20260502024528 58 314 0.0 6.0 0.02 3.16 3.15 96 1013.8
20260502023027 58 353 0.0 3.0 0.02 3.15 3.14 97 1013.6
20260502021520 58 283 0.0 4.0 0.04 3.15 3.14 97 1013.7
20260502020019 58 356 0.0 3.0 0.03 3.14 3.13 97 1013.5
20260502014523 58 356 0.0 2.0 0.04 3.21 3.13 97 1013.1
20260502013015 58 359 0.0 3.0 0.09 3.20 3.12 97 1012.6
20260502011521 59 307 0.0 3.0 0.15 3.18 3.10 97 1012.5
20260502010017 59 316 0.0 3.0 0.20 3.18 3.10 97 1011.3
20260502004513 59 102 1.0 6.0 0.20 3.38 3.09 96 1010.8
20260502003017 59 307 1.0 5.0 0.14 3.32 3.03 96 1011.3
20260502001509 59 15 0.0 6.0 0.08 3.24 2.95 96 1011.1
20260502000007 59 355 0.0 8.0 0.04 3.19 2.90 96 1010.7
20260501234507 60 56 0.0 4.0 0.03 3.18 2.89 96 1010.6
20260501233004 60 343 0.0 3.0 0.03 3.18 2.89 96 1010.1
20260501231507 60 359 1.0 5.0 0.01 3.16 2.87 96 1010.2
20260501230002 61 74 0.0 5.0 0.01 3.15 2.86 96 1010.0
20260501224500 61 79 1.0 3.0 0.02 3.15 2.86 97 1010.4
20260501223100 61 117 1.0 8.0 0.06 3.15 2.86 97 1010.2
20260501221600 61 91 3.0 10.0 0.13 3.15 2.86 97 1010.5
20260501220057 61 341 0.0 3.0 0.19 3.14 2.85 97 1010.9
20260501214607 62 46 0.0 3.0 0.26 3.13 2.84 97 1010.6
20260501213103 61 127 0.0 5.0 0.23 3.08 2.79 97 1009.3
20260501211555 62 61 3.0 8.0 0.28 3.00 2.71 97 1009.7
20260501210053 62 103 1.0 6.0 0.56 2.95 2.66 97 1010.2
20260501204553 62 290 0.0 10.0 0.67 2.87 2.58 97 1010.2
20260501203051 62 103 0.0 6.0 1.10 2.85 2.56 97 1009.3
20260501201552 63 98 0.0 3.0 0.99 2.72 2.43 97 1008.7
20260501200048 62 13 0.0 5.0 0.67 2.39 2.10 97 1009.7
20260501194558 62 91 2.0 6.0 0.48 2.20 1.91 97 1008.7
20260501193047 62 82 1.0 7.0 0.04 1.75 1.46 96 1009.1
20260501191545 63 87 1.0 7.0 0.02 1.73 1.44 96 1008.4
20260501190050 63 94 1.0 5.0 0.01 1.72 1.43 96 1010.1
20260501184544 63 81 0.0 7.0 0.01 1.72 1.43 96 1009.3
20260501183042 63 202 2.0 13.0 0.00 1.71 1.42 97 1009.8
20260501181542 63 48 1.0 5.0 0.01 1.71 1.42 97 1009.5
20260501180042 63 340 1.0 7.0 0.09 1.71 1.42 97 1009.7
20260501174543 63 339 1.0 5.0 0.51 1.71 1.42 97 1010.0
20260501173052 63 64 0.0 4.0 0.55 1.71 1.42 97 1010.9